This demonstration page uses our WeatherBlox Daily Observations layout. Learn more.

36.19886, -115.1175

Hourly Observations for November 7, 2018

Temp ( °F °C ) Dew Point ( °F °C ) Humidity (%) Winds ( mph kmh ) Pressure ( in mb ) Visibility ( mi km ) Precip ( " mm )
12:53 am 00:53 Clear 54 12.2 21 -6.1 28 28 S 6 9 29.97 1015 10 16.09344 0 0
1:53 am 01:53 Clear 53 11.7 18 -7.8 25 25 Calm 29.97 1015 10 16.09344 0 0
2:53 am 02:53 Clear 50 10 20 -6.7 30 30 NNW 5 7 30 1016 10 16.09344 0 0
3:53 am 03:53 Clear 51 10.6 17 -8.3 26 26 NW 6 9 30 1016 10 16.09344 0 0
4:53 am 04:53 Clear 51 10.6 9 -12.8 18 18 NW 6 9 30.03 1017 10 16.09344 0 0
5:53 am 05:53 Clear 49 9.4 8 -13.3 19 19 Calm 30.03 1017 10 16.09344 0 0
6:53 am 06:53 Sunny 49 9.4 17 -8.3 28 28 NNW 6 9 30.03 1017 10 16.09344 0 0
7:53 am 07:53 Sunny 57 13.9 16 -8.9 20 20 Calm 30.06 1018 10 16.09344 0 0
8:53 am 08:53 Sunny 60 15.6 13 -10.6 16 16 SE 5 7 30.03 1017 10 16.09344 0 0
9:53 am 09:53 Sunny 62 16.7 11 -11.7 13 13 SSE 3 6 30.03 1017 10 16.09344 0 0
10:53 am 10:53 Sunny 65 18.3 9 -12.8 11 11 SE 3 6 30.03 1017 10 16.09344 0 0
11:53 am 11:53 Sunny 68 20 8 -13.3 9 9 SE 6 9 29.97 1015 10 16.09344 0 0
12:53 pm 12:53 Sunny 70 21.1 10 -12.2 10 10 Calm 29.94 1014 10 16.09344 0 0
1:53 pm 13:53 Sunny 71 21.7 10 -12.2 9 9 N 3 6 29.91 1013 10 16.09344 0 0
2:53 pm 14:53 Sunny 72 22.2 11 -11.7 9 9 Calm 29.91 1013 10 16.09344 0 0
3:53 pm 15:53 Sunny 72 22.2 12 -11.1 10 10 Calm 29.91 1013 10 16.09344 0 0
4:53 pm 16:53 Clear 70 21.1 13 -10.6 11 11 Calm 29.88 1012 10 16.09344 0 0
5:53 pm 17:53 Clear 65 18.3 16 -8.9 15 15 Calm 29.91 1013 10 16.09344 0 0
6:53 pm 18:53 Clear 62 16.7 22 -5.6 21 21 WNW 6 9 29.94 1014 10 16.09344 0 0
7:53 pm 19:53 Clear 59 15 22 -5.6 24 24 WNW 5 7 29.91 1013 10 16.09344 0 0
8:53 pm 20:53 Clear 57 13.9 19 -7.2 23 23 NW 7 11 29.94 1014 10 16.09344 0 0
9:53 pm 21:53 Clear 55 12.8 18 -7.8 23 23 WNW 7 11 29.94 1014 10 16.09344 0 0
10:53 pm 22:53 Clear 57 13.9 12 -11.1 17 17 N 8 13 29.97 1015 10 16.09344 0 0
11:53 pm 23:53 Clear 56 13.3 10 -12.2 16 16 Calm 29.97 1015 10 16.09344 0 0

Powered by AerisWeather